STARLINK-31693, 59441

Orbit data source: Space-Track

STARLINK-31693, 59441 is a payload satellite owned by SpaceX/Seattle (US) in LEO that was launched on Sun, 07 Apr 2024 UTC via an FALCON 9 launch vehicle from the Air Force Western Test Range (AFWTR). Payload-class satellites include a variety of spacecraft equipped with specific instruments for various scientific and technological missions. These include communications satellites like Starlink; space stations such as the ISS; scientific satellites like the Hubble; Earth observation satellites from companies like Planet Labs, Umbra, and HawkEye 360; GPS; miniature CubeSats for education and research; and military/defense satellites.

Loading next visibility...
Identifier
59441, 2024-065W
Orbit
LEO
Country
Flag of USUS
Related business
Manufacturer
SpaceX/Seattle
Mission
Operational Commercial Communications
Bus & Motor
STARLINK V2M, Unknown motor
Mass
730 kg wet, ~700 kg dry
Launch date (UTC)
2024-04-07 (2 years ago)
Launch vehicle
FALCON 9
Launch site
Air Force Western Test Range (AFWTR)
Object type
Payload
Rocket body
Debris
Shape & HBR
Box + 2 Pan, 17.7 m
Radar Cross Section
33.884 m², Large (>1 m²)

Expand to show TLE details & history
Last TLE update: 1 week ago

TLE from 1 week ago
0 STARLINK-31693
1 59441U 24065W   26164.60094014  .00121865  00000-0  39429-2 0  9995
2 59441  53.1592 196.1873 0001758 114.0457 246.0728 15.31142701123615
Epoch: 2026-06-13T14:25Z
TLE epoch observation values (Epoch: 2026-06-13T14:25:21.228Z)
Latitude
-0.00002°
Longitude
77.93514°
Altitude
473.79 km
Speed
7.63 km/s
True Right ascension
13h 04m 44s
True Declination
0° 00' 00"
Sunlit
Object was in full shadow at epoch
Visualization orbit readout
Latitude
Unknown
Longitude
Unknown
Altitude
Unknown
Speed
Unknown
Apparent Right ascension
Unknown
Apparent Declination
Unknown
Sunlit
N/A
Visualization observer readout
Local Sidereal Time
21:25:44
Azimuth
Unknown
Elevation
Unknown
Doppler factor
Unknown
Orbital elements
Apogee altitude
473.863 km
Perigee altitude
471.454 km
Semi-major axis
6,850.795 km
Eccentricity
0.00018
Inclination
53.1592°
RAAN
196.1873°
Arg. of periapsis
114.0457°
True anomaly
246.05439°
Mean anomaly
246.0728°
Eccentric anomaly
246.06359°
Mean motion
3.82765 °/min
Orbital period
94.05 mins
BSTAR
0.0039429
Loading maneuver chart data...
Computing Atmospheric mass density...
Loading historical data...
Loading historical data...
Loading historical data...
Loading historical data...
Loading historical data...
Loading historical data...
Loading historical data...

Documentation

Showing up to 5 results
|